Weather in Studenoye

Russia / Orenburg Oblast     51°35′32″N   53°09′37″E
temp.,
°C
wind,
m/s
gust,
m/s
humid.,
%
clouds,
%
prec.,
mm/h
press.,
hPa
HPBL,
m
23 october, sat
sat2323:00+12sw817550 0.0 1013604
02:00+11sw715570 0.0 1013433
05:00+9sw61358100 0.0 1014319
08:00+8sw51066100 0.0 1015223
11:00+11sw61162100 0.0 1016405
14:00+15wsw6957100 0.0 1017714
17:00+15sw5958100 0.0 1016515
20:00+12ssw41067100 0.0 1017228
24 october, sun
sun2423:00+12ssw4964100 0.0 1017206
02:00+12s4960100 0.0 1015215
05:00+12ssw61380100 0.0 1014433
08:00+11ssw61286100 0.6 1012513
11:00+10sw61187100 3.0 1013601
14:00+10wsw4793100 2.3 1014380
17:00+11sw4789100 3.3 1014443
20:00+10sw3693100 0.1 1015138
25 october, mon
mon2523:00+9nnw3470100 0.1 101574
02:00+7nne2271100 0.0 101432
05:00+7nne2270100 0.0 101438
08:00+6nnw2281100 0.8 101492
11:00+7n3478100 2.1 1014565
14:00+8nnw3462100 0.0 10131012
17:00+8nne5760100 0.0 10131130
20:00+7n61066100 0.1 1014606
26 october, tue
tue2623:00+6n61262100 0.1 1015784
02:00+4n7137263 0.0 1017632
05:00+2n8147724 0.0 1019702
08:00+1n816650 0.0 1021732
11:00+2nne914510 0.0 1024804
14:00+5nne8113238 0.0 10241099
17:00+5n68345 0.0 1025989
20:00+2nnw364716 0.0 1027135
27 october, wed
wed2723:00+1nnw335041 0.0 102834
02:000wnw225210 0.0 102812
05:000wsw335526 0.0 102832
08:00−1sw355985 0.0 102890
11:00+3wsw57455 0.0 1028374
14:00+7wsw683727 0.0 1026782
17:00+7wsw593965 0.0 1025575
20:00+5sw5114598 0.0 1025307